| time (UTC) | temp F | wind direction | speed MPH | gust MPH | rain 1hr in | rain 24hr in | rain mn in | humidity % | barometer mb |
| 20260906203203 | 73 | 0 | 0.0 | 0.0 | 0.00 | 0.00 | 0.00 | 84 | 1013.1 |
| 20260906202804 | 73 | 0 | 0.0 | 0.0 | 0.00 | 0.00 | 0.00 | 83 | 1013.0 |
| 20260906202403 | 73 | 0 | 0.0 | 0.0 | 0.00 | 0.00 | 0.00 | 83 | 1013.1 |
| 20260906202003 | 73 | 90 | 0.0 | 2.0 | 0.00 | 0.00 | 0.00 | 84 | 1013.0 |
| 20260906201603 | 73 | 90 | 0.0 | 2.0 | 0.00 | 0.00 | 0.00 | 84 | 1013.0 |
| 20260906201203 | 72 | 90 | 1.0 | 2.0 | 0.00 | 0.00 | 0.00 | 85 | 1012.8 |
| 20260906200803 | 72 | 0 | 0.0 | 0.0 | 0.00 | 0.00 | 0.00 | 84 | 1013.0 |
| 20260906200403 | 73 | 0 | 0.0 | 0.0 | 0.00 | 0.00 | 0.00 | 83 | 1012.9 |
| 20260906200004 | 73 | 0 | 0.0 | 0.0 | 0.00 | 0.00 | 0.00 | 83 | 1012.7 |
| 20260906195603 | 73 | 0 | 0.0 | 0.0 | 0.00 | 0.00 | 0.00 | 82 | 1012.9 |
| 20260906195203 | 73 | 0 | 0.0 | 0.0 | 0.00 | 0.00 | 0.00 | 83 | 1012.7 |
| 20260906195017 | 73 | 0 | 0.0 | 0.0 | 0.00 | 0.00 | 0.00 | 83 | 1012.9 |
| 20260906194403 | 72 | 0 | 0.0 | 0.0 | 0.00 | 0.00 | 0.00 | 83 | 1012.9 |
| 20260906194003 | 73 | 0 | 0.0 | 0.0 | 0.00 | 0.00 | 0.00 | 83 | 1012.6 |
| 20260906193603 | 73 | 0 | 0.0 | 0.0 | 0.00 | 0.00 | 0.00 | 83 | 1012.8 |
| 20260906193203 | 74 | 0 | 0.0 | 0.0 | 0.00 | 0.00 | 0.00 | 83 | 1012.6 |
| 20260906192803 | 74 | 0 | 0.0 | 0.0 | 0.00 | 0.00 | 0.00 | 80 | 1012.7 |
| 20260906192403 | 74 | 0 | 0.0 | 0.0 | 0.00 | 0.00 | 0.00 | 79 | 1012.8 |
| 20260906192003 | 74 | 0 | 0.0 | 0.0 | 0.00 | 0.00 | 0.00 | 79 | 1012.8 |
| 20260906191603 | 74 | 0 | 0.0 | 0.0 | 0.00 | 0.00 | 0.00 | 78 | 1012.7 |
| 20260906191204 | 75 | 0 | 0.0 | 0.0 | 0.00 | 0.00 | 0.00 | 79 | 1012.7 |
| 20260906190803 | 75 | 0 | 0.0 | 0.0 | 0.00 | 0.00 | 0.00 | 78 | 1012.8 |
| 20260906190615 | 75 | 0 | 0.0 | 0.0 | 0.00 | 0.00 | 0.00 | 79 | 1012.5 |
| 20260906190003 | 75 | 0 | 0.0 | 0.0 | 0.00 | 0.00 | 0.00 | 78 | 1012.5 |
| 20260906185603 | 75 | 0 | 0.0 | 0.0 | 0.00 | 0.00 | 0.00 | 78 | 1012.5 |
| 20260906185203 | 75 | 0 | 0.0 | 0.0 | 0.00 | 0.00 | 0.00 | 77 | 1012.5 |
| 20260906184803 | 76 | 0 | 0.0 | 0.0 | 0.00 | 0.00 | 0.00 | 77 | 1012.6 |
| 20260906184403 | 76 | 0 | 0.0 | 0.0 | 0.00 | 0.00 | 0.00 | 76 | 1012.4 |
| 20260906184003 | 76 | 0 | 0.0 | 0.0 | 0.00 | 0.00 | 0.00 | 76 | 1012.7 |
| 20260906183816 | 76 | 0 | 0.0 | 0.0 | 0.00 | 0.00 | 0.00 | 76 | 1012.4 |
| 20260906183203 | 77 | 0 | 0.0 | 0.0 | 0.00 | 0.00 | 0.00 | 75 | 1012.5 |
| 20260906182803 | 77 | 0 | 0.0 | 0.0 | 0.00 | 0.00 | 0.00 | 72 | 1012.4 |
| 20260906182403 | 78 | 0 | 0.0 | 0.0 | 0.00 | 0.00 | 0.00 | 71 | 1012.4 |
| 20260906182003 | 77 | 0 | 0.0 | 0.0 | 0.00 | 0.00 | 0.00 | 70 | 1012.5 |
| 20260906181603 | 77 | 0 | 0.0 | 0.0 | 0.00 | 0.00 | 0.00 | 71 | 1012.1 |
| 20260906181204 | 78 | 0 | 0.0 | 0.0 | 0.00 | 0.00 | 0.00 | 71 | 1012.3 |
| 20260906180803 | 78 | 0 | 0.0 | 0.0 | 0.00 | 0.00 | 0.00 | 70 | 1012.2 |
| 20260906180616 | 78 | 0 | 0.0 | 0.0 | 0.00 | 0.00 | 0.00 | 70 | 1012.3 |
| 20260906180004 | 79 | 0 | 0.0 | 0.0 | 0.00 | 0.00 | 0.00 | 68 | 1012.2 |
| 20260906175815 | 79 | 0 | 0.0 | 0.0 | 0.00 | 0.00 | 0.00 | 67 | 1012.3 |
| 20260906175203 | 79 | 0 | 0.0 | 0.0 | 0.00 | 0.00 | 0.00 | 68 | 1012.1 |
| 20260906174803 | 79 | 0 | 0.0 | 0.0 | 0.00 | 0.00 | 0.00 | 68 | 1012.1 |
| 20260906174403 | 79 | 0 | 0.0 | 0.0 | 0.00 | 0.00 | 0.00 | 68 | 1012.0 |
| 20260906174003 | 80 | 0 | 0.0 | 0.0 | 0.00 | 0.00 | 0.00 | 67 | 1012.1 |
| 20260906173603 | 80 | 0 | 0.0 | 0.0 | 0.00 | 0.00 | 0.00 | 65 | 1012.2 |
| 20260906173416 | 81 | 90 | 0.0 | 2.0 | 0.00 | 0.00 | 0.00 | 65 | 1012.2 |
| 20260906172803 | 81 | 90 | 0.0 | 2.0 | 0.00 | 0.00 | 0.00 | 64 | 1012.1 |
| 20260906172403 | 82 | 90 | 0.0 | 2.0 | 0.00 | 0.00 | 0.00 | 63 | 1012.2 |
| 20260906172003 | 82 | 90 | 0.0 | 2.0 | 0.00 | 0.00 | 0.00 | 62 | 1012.1 |
| 20260906171603 | 82 | 90 | 1.0 | 2.0 | 0.00 | 0.00 | 0.00 | 61 | 1012.0 |
| 20260906171203 | 82 | 90 | 1.0 | 2.0 | 0.00 | 0.00 | 0.00 | 63 | 1012.1 |
| 20260906170803 | 83 | 90 | 2.0 | 4.0 | 0.00 | 0.00 | 0.00 | 62 | 1012.0 |
| 20260906170403 | 83 | 90 | 2.0 | 4.0 | 0.00 | 0.00 | 0.00 | 59 | 1012.2 |
| 20260906170004 | 84 | 91 | 2.0 | 4.0 | 0.00 | 0.00 | 0.00 | 59 | 1012.3 |
| 20260906165603 | 84 | 89 | 2.0 | 4.0 | 0.00 | 0.00 | 0.00 | 60 | 1011.9 |
| 20260906165203 | 84 | 88 | 2.0 | 4.0 | 0.00 | 0.00 | 0.00 | 58 | 1011.9 |
| 20260906164803 | 84 | 86 | 1.0 | 2.0 | 0.00 | 0.00 | 0.00 | 60 | 1012.1 |
| 20260906164403 | 85 | 85 | 2.0 | 4.0 | 0.00 | 0.00 | 0.00 | 57 | 1011.9 |
| 20260906164003 | 85 | 87 | 1.0 | 4.0 | 0.00 | 0.00 | 0.00 | 57 | 1012.0 |
| 20260906163817 | 85 | 88 | 1.0 | 4.0 | 0.00 | 0.00 | 0.00 | 57 | 1012.2 |
| 20260906163203 | 86 | 87 | 2.0 | 4.0 | 0.00 | 0.00 | 0.00 | 56 | 1012.0 |
| 20260906163016 | 86 | 87 | 2.0 | 4.0 | 0.00 | 0.00 | 0.00 | 56 | 1012.1 |
| 20260906162403 | 86 | 88 | 2.0 | 4.0 | 0.00 | 0.00 | 0.00 | 53 | 1012.1 |
| 20260906162003 | 87 | 87 | 2.0 | 4.0 | 0.00 | 0.00 | 0.00 | 53 | 1011.9 |
| 20260906161603 | 87 | 87 | 2.0 | 4.0 | 0.00 | 0.00 | 0.00 | 52 | 1012.3 |
| 20260906161203 | 87 | 88 | 1.0 | 4.0 | 0.00 | 0.00 | 0.00 | 52 | 1012.0 |
| 20260906160803 | 87 | 85 | 2.0 | 4.0 | 0.00 | 0.00 | 0.00 | 51 | 1012.0 |
| 20260906160403 | 88 | 70 | 2.0 | 4.0 | 0.00 | 0.00 | 0.00 | 50 | 1012.3 |
| 20260906160003 | 88 | 65 | 1.0 | 4.0 | 0.00 | 0.00 | 0.00 | 50 | 1012.0 |
| 20260906155816 | 88 | 68 | 2.0 | 4.0 | 0.00 | 0.00 | 0.00 | 49 | 1012.2 |
| 20260906155203 | 88 | 70 | 2.0 | 4.0 | 0.00 | 0.00 | 0.00 | 48 | 1012.1 |
| 20260906154803 | 88 | 59 | 1.0 | 4.0 | 0.00 | 0.00 | 0.00 | 49 | 1012.0 |
| 20260906154403 | 88 | 42 | 2.0 | 4.0 | 0.00 | 0.00 | 0.00 | 49 | 1012.2 |
| 20260906154003 | 88 | 71 | 2.0 | 4.0 | 0.00 | 0.00 | 0.00 | 50 | 1012.0 |
| 20260906153603 | 88 | 79 | 2.0 | 4.0 | 0.00 | 0.00 | 0.00 | 48 | 1012.1 |
| 20260906153203 | 89 | 91 | 2.0 | 4.0 | 0.00 | 0.00 | 0.00 | 49 | 1012.2 |
| 20260906152803 | 88 | 86 | 2.0 | 4.0 | 0.00 | 0.00 | 0.00 | 48 | 1012.2 |
| 20260906152403 | 89 | 74 | 2.0 | 4.0 | 0.00 | 0.00 | 0.00 | 48 | 1012.1 |
| 20260906152003 | 89 | 52 | 2.0 | 4.0 | 0.00 | 0.00 | 0.00 | 49 | 1012.0 |
| 20260906151603 | 90 | 57 | 2.0 | 4.0 | 0.00 | 0.00 | 0.00 | 48 | 1012.1 |
| 20260906151203 | 89 | 59 | 2.0 | 4.0 | 0.00 | 0.00 | 0.00 | 47 | 1012.2 |
| 20260906150803 | 89 | 79 | 2.0 | 4.0 | 0.00 | 0.00 | 0.00 | 47 | 1012.2 |
| 20260906150403 | 89 | 52 | 1.0 | 4.0 | 0.00 | 0.00 | 0.00 | 47 | 1012.2 |
| 20260906150003 | 90 | 62 | 3.0 | 4.0 | 0.00 | 0.00 | 0.00 | 47 | 1012.3 |
| 20260906145817 | 90 | 58 | 2.0 | 4.0 | 0.00 | 0.00 | 0.00 | 46 | 1012.2 |
| 20260906145203 | 90 | 83 | 2.0 | 6.0 | 0.00 | 0.00 | 0.00 | 46 | 1012.3 |
| 20260906144804 | 89 | 75 | 2.0 | 6.0 | 0.00 | 0.00 | 0.00 | 47 | 1012.3 |
| 20260906144403 | 89 | 64 | 3.0 | 6.0 | 0.00 | 0.00 | 0.00 | 47 | 1012.2 |
| 20260906144004 | 89 | 63 | 2.0 | 6.0 | 0.00 | 0.00 | 0.00 | 47 | 1012.2 |
| 20260906143603 | 90 | 80 | 1.0 | 4.0 | 0.00 | 0.00 | 0.00 | 45 | 1012.3 |
| 20260906143203 | 89 | 93 | 2.0 | 4.0 | 0.00 | 0.00 | 0.00 | 49 | 1012.3 |
| 20260906142803 | 89 | 96 | 1.0 | 7.0 | 0.00 | 0.00 | 0.00 | 49 | 1012.4 |
| 20260906142403 | 88 | 94 | 3.0 | 7.0 | 0.00 | 0.00 | 0.00 | 51 | 1012.0 |
| 20260906142003 | 88 | 84 | 3.0 | 7.0 | 0.00 | 0.00 | 0.00 | 51 | 1012.4 |
| 20260906141603 | 88 | 88 | 4.0 | 6.0 | 0.00 | 0.00 | 0.00 | 52 | 1012.4 |
| 20260906141203 | 89 | 98 | 3.0 | 7.0 | 0.00 | 0.00 | 0.00 | 52 | 1012.2 |
| 20260906140803 | 89 | 98 | 3.0 | 7.0 | 0.00 | 0.00 | 0.00 | 53 | 1012.6 |
| 20260906140403 | 88 | 90 | 2.0 | 8.0 | 0.00 | 0.00 | 0.00 | 54 | 1012.2 |
| 20260906140003 | 88 | 85 | 2.0 | 8.0 | 0.00 | 0.00 | 0.00 | 52 | 1012.5 |
| 20260906135603 | 89 | 88 | 2.0 | 7.0 | 0.00 | 0.00 | 0.00 | 51 | 1012.3 |
| 20260906135203 | 88 | 95 | 2.0 | 7.0 | 0.00 | 0.00 | 0.00 | 54 | 1012.6 |
| 20260906134803 | 88 | 89 | 3.0 | 7.0 | 0.00 | 0.00 | 0.00 | 55 | 1012.6 |
| 20260906134403 | 89 | 75 | 2.0 | 6.0 | 0.00 | 0.00 | 0.00 | 51 | 1012.6 |
| 20260906134003 | 89 | 76 | 3.0 | 6.0 | 0.00 | 0.00 | 0.00 | 51 | 1012.6 |
| 20260906133603 | 89 | 54 | 1.0 | 7.0 | 0.00 | 0.00 | 0.00 | 49 | 1012.4 |
| 20260906133203 | 89 | 60 | 2.0 | 7.0 | 0.00 | 0.00 | 0.00 | 53 | 1012.5 |
| 20260906132803 | 89 | 88 | 4.0 | 7.0 | 0.00 | 0.00 | 0.00 | 52 | 1012.8 |
| 20260906132403 | 88 | 107 | 4.0 | 8.0 | 0.00 | 0.00 | 0.00 | 52 | 1012.5 |
| 20260906132003 | 87 | 105 | 3.0 | 8.0 | 0.00 | 0.00 | 0.00 | 56 | 1012.6 |
| 20260906131603 | 88 | 103 | 3.0 | 11.0 | 0.00 | 0.00 | 0.00 | 55 | 1012.5 |
| 20260906131415 | 88 | 94 | 4.0 | 11.0 | 0.00 | 0.00 | 0.00 | 54 | 1012.7 |
| 20260906130803 | 87 | 94 | 5.0 | 11.0 | 0.00 | 0.00 | 0.00 | 54 | 1012.8 |
| 20260906130614 | 87 | 85 | 6.0 | 9.0 | 0.00 | 0.00 | 0.00 | 55 | 1012.6 |
| 20260906130003 | 87 | 101 | 4.0 | 8.0 | 0.00 | 0.00 | 0.00 | 55 | 1012.8 |
| 20260906125603 | 88 | 105 | 2.0 | 7.0 | 0.00 | 0.00 | 0.00 | 52 | 1012.8 |
| 20260906125203 | 88 | 93 | 3.0 | 6.0 | 0.00 | 0.00 | 0.00 | 52 | 1012.7 |
| 20260906124803 | 89 | 85 | 2.0 | 8.0 | 0.00 | 0.00 | 0.00 | 54 | 1012.7 |
| 20260906124403 | 89 | 70 | 2.0 | 8.0 | 0.00 | 0.00 | 0.00 | 53 | 1012.8 |
| 20260906124003 | 87 | 68 | 3.0 | 7.0 | 0.00 | 0.00 | 0.00 | 54 | 1012.6 |
| 20260906123603 | 88 | 68 | 2.0 | 8.0 | 0.00 | 0.00 | 0.00 | 52 | 1012.8 |
| 20260906123203 | 87 | 76 | 3.0 | 8.0 | 0.00 | 0.00 | 0.00 | 54 | 1012.6 |
| 20260906122803 | 88 | 75 | 5.0 | 8.0 | 0.00 | 0.00 | 0.00 | 55 | 1012.6 |
| 20260906122613 | 89 | 83 | 4.0 | 6.0 | 0.00 | 0.00 | 0.00 | 52 | 1012.8 |
| 20260906122003 | 89 | 86 | 2.0 | 6.0 | 0.00 | 0.00 | 0.00 | 53 | 1012.5 |
| 20260906121603 | 89 | 76 | 2.0 | 7.0 | 0.00 | 0.00 | 0.00 | 51 | 1012.6 |
| 20260906121203 | 88 | 68 | 2.0 | 7.0 | 0.00 | 0.00 | 0.00 | 53 | 1012.6 |
| 20260906120803 | 90 | 82 | 0.0 | 8.0 | 0.00 | 0.00 | 0.00 | 50 | 1012.8 |
| 20260906120403 | 88 | 79 | 2.0 | 8.0 | 0.00 | 0.00 | 0.00 | 51 | 1012.8 |
| 20260906120004 | 88 | 78 | 4.0 | 8.0 | 0.00 | 0.00 | 0.00 | 51 | 1012.9 |
| 20260906115603 | 89 | 82 | 2.0 | 7.0 | 0.00 | 0.00 | 0.00 | 51 | 1012.7 |
| 20260906115203 | 88 | 87 | 1.0 | 7.0 | 0.00 | 0.00 | 0.00 | 54 | 1012.9 |
| 20260906114803 | 88 | 93 | 4.0 | 8.0 | 0.00 | 0.00 | 0.00 | 52 | 1012.7 |
| 20260906114403 | 87 | 103 | 1.0 | 8.0 | 0.00 | 0.00 | 0.00 | 53 | 1012.7 |
| 20260906114216 | 87 | 107 | 2.0 | 8.0 | 0.00 | 0.00 | 0.00 | 52 | 1012.6 |
| 20260906113603 | 88 | 104 | 1.0 | 8.0 | 0.00 | 0.00 | 0.00 | 52 | 1012.7 |
| 20260906113203 | 89 | 101 | 2.0 | 8.0 | 0.00 | 0.00 | 0.00 | 50 | 1012.9 |
| 20260906112803 | 88 | 98 | 2.0 | 8.0 | 0.00 | 0.00 | 0.00 | 52 | 1012.7 |
| 20260906112403 | 88 | 90 | 5.0 | 8.0 | 0.00 | 0.00 | 0.00 | 52 | 1012.9 |
| 20260906112003 | 87 | 63 | 3.0 | 8.0 | 0.00 | 0.00 | 0.00 | 52 | 1012.9 |
| 20260906111603 | 87 | 45 | 2.0 | 6.0 | 0.00 | 0.00 | 0.00 | 50 | 1012.8 |
| 20260906111417 | 89 | 50 | 4.0 | 6.0 | 0.00 | 0.00 | 0.00 | 50 | 1012.7 |
| 20260906110803 | 88 | 79 | 1.0 | 4.0 | 0.00 | 0.00 | 0.00 | 51 | 1012.9 |
| 20260906110403 | 88 | 62 | 2.0 | 6.0 | 0.00 | 0.00 | 0.00 | 53 | 1012.9 |
| 20260906110004 | 88 | 33 | 2.0 | 7.0 | 0.00 | 0.00 | 0.00 | 53 | 1012.9 |
| 20260906105603 | 88 | 12 | 2.0 | 7.0 | 0.00 | 0.00 | 0.00 | 50 | 1012.8 |
| 20260906105203 | 88 | 8 | 2.0 | 7.0 | 0.00 | 0.00 | 0.00 | 49 | 1012.8 |
| 20260906104803 | 88 | 39 | 2.0 | 7.0 | 0.00 | 0.00 | 0.00 | 50 | 1012.7 |
| 20260906104403 | 88 | 72 | 3.0 | 7.0 | 0.00 | 0.00 | 0.00 | 50 | 1012.8 |
| 20260906104003 | 88 | 85 | 4.0 | 7.0 | 0.00 | 0.00 | 0.00 | 52 | 1012.9 |
| 20260906103603 | 88 | 94 | 3.0 | 7.0 | 0.00 | 0.00 | 0.00 | 52 | 1012.7 |
| 20260906103203 | 88 | 76 | 3.0 | 7.0 | 0.00 | 0.00 | 0.00 | 51 | 1013.1 |
| 20260906102803 | 88 | 70 | 2.0 | 7.0 | 0.00 | 0.00 | 0.00 | 53 | 1013.1 |
| 20260906102403 | 88 | 75 | 2.0 | 7.0 | 0.00 | 0.00 | 0.00 | 50 | 1013.0 |
| 20260906102213 | 87 | 82 | 2.0 | 7.0 | 0.00 | 0.00 | 0.00 | 49 | 1013.0 |
| 20260906101604 | 89 | 80 | 2.0 | 7.0 | 0.00 | 0.00 | 0.00 | 50 | 1013.1 |
| 20260906101203 | 89 | 64 | 2.0 | 7.0 | 0.00 | 0.00 | 0.00 | 50 | 1013.1 |
| 20260906101017 | 90 | 53 | 2.0 | 4.0 | 0.00 | 0.00 | 0.00 | 49 | 1012.6 |
| 20260906100403 | 88 | 42 | 2.0 | 8.0 | 0.00 | 0.00 | 0.00 | 49 | 1013.0 |
| 20260906095603 | 87 | 60 | 3.0 | 6.0 | 0.00 | 0.00 | 0.00 | 53 | 1018.6 |
| 20260906095203 | 87 | 43 | 3.0 | 6.0 | 0.00 | 0.00 | 0.00 | 51 | 1018.7 |
| 20260906094803 | 87 | 38 | 2.0 | 6.0 | 0.00 | 0.00 | 0.00 | 52 | 1018.6 |
| 20260906094403 | 86 | 29 | 3.0 | 6.0 | 0.00 | 0.00 | 0.00 | 52 | 1018.9 |
| 20260906094216 | 86 | 35 | 2.0 | 6.0 | 0.00 | 0.00 | 0.00 | 52 | 1018.5 |
| 20260906093603 | 87 | 2 | 2.0 | 7.0 | 0.00 | 0.00 | 0.00 | 52 | 1018.6 |
| 20260906093203 | 86 | 353 | 4.0 | 11.0 | 0.00 | 0.00 | 0.00 | 52 | 1019.0 |
| 20260906092803 | 86 | 17 | 1.0 | 11.0 | 0.00 | 0.00 | 0.00 | 53 | 1018.7 |
| 20260906092403 | 86 | 35 | 2.0 | 11.0 | 0.00 | 0.00 | 0.00 | 53 | 1018.9 |
| 20260906092003 | 86 | 51 | 3.0 | 7.0 | 0.00 | 0.00 | 0.00 | 53 | 1018.6 |
| 20260906091603 | 87 | 18 | 2.0 | 9.0 | 0.00 | 0.00 | 0.00 | 53 | 1018.9 |
| 20260906091416 | 87 | 8 | 2.0 | 9.0 | 0.00 | 0.00 | 0.00 | 53 | 1018.8 |
| 20260906090803 | 86 | 8 | 4.0 | 9.0 | 0.00 | 0.00 | 0.00 | 53 | 1018.7 |
| 20260906090615 | 85 | 17 | 2.0 | 9.0 | 0.00 | 0.00 | 0.00 | 54 | 1018.8 |
| 20260906090214 | 84 | 31 | 3.0 | 9.0 | 0.00 | 0.00 | 0.00 | 56 | 1018.9 |
| 20260906085814 | 84 | 56 | 2.0 | 8.0 | 0.00 | 0.00 | 0.00 | 56 | 1019.0 |
| 20260906085413 | 85 | 65 | 4.0 | 8.0 | 0.00 | 0.00 | 0.00 | 54 | 1018.7 |
| 20260906084803 | 84 | 29 | 2.0 | 7.0 | 0.00 | 0.00 | 0.00 | 56 | 1019.0 |
| 20260906084403 | 84 | 36 | 2.0 | 8.0 | 0.00 | 0.00 | 0.00 | 56 | 1018.8 |
| 20260906084003 | 84 | 36 | 2.0 | 8.0 | 0.00 | 0.00 | 0.00 | 55 | 1018.9 |
| 20260906083603 | 84 | 37 | 3.0 | 7.0 | 0.00 | 0.00 | 0.00 | 56 | 1018.8 |
| 20260906083203 | 84 | 39 | 2.0 | 6.0 | 0.00 | 0.00 | 0.00 | 55 | 1018.9 |
| 20260906082803 | 84 | 50 | 3.0 | 8.0 | 0.00 | 0.00 | 0.00 | 56 | 1018.9 |
| 20260906082403 | 84 | 39 | 3.0 | 8.0 | 0.00 | 0.00 | 0.00 | 56 | 1018.6 |
| 20260906082003 | 83 | 36 | 3.0 | 8.0 | 0.00 | 0.00 | 0.00 | 57 | 1018.9 |
| 20260906081603 | 84 | 29 | 2.0 | 11.0 | 0.00 | 0.00 | 0.00 | 56 | 1018.6 |
| 20260906081203 | 84 | 28 | 2.0 | 11.0 | 0.00 | 0.00 | 0.00 | 56 | 1018.6 |
| 20260906080803 | 82 | 23 | 3.0 | 11.0 | 0.00 | 0.00 | 0.00 | 58 | 1018.7 |
| 20260906080404 | 83 | 17 | 3.0 | 9.0 | 0.00 | 0.00 | 0.00 | 57 | 1018.6 |
| 20260906080004 | 82 | 19 | 4.0 | 9.0 | 0.00 | 0.00 | 0.00 | 58 | 1018.6 |
| 20260906075603 | 82 | 24 | 2.0 | 9.0 | 0.00 | 0.00 | 0.00 | 59 | 1018.6 |
| 20260906075203 | 83 | 29 | 4.0 | 8.0 | 0.00 | 0.00 | 0.00 | 56 | 1018.6 |
| 20260906074803 | 82 | 32 | 4.0 | 7.0 | 0.00 | 0.00 | 0.00 | 57 | 1018.7 |
| 20260906074403 | 83 | 23 | 2.0 | 4.0 | 0.00 | 0.00 | 0.00 | 58 | 1018.6 |
| 20260906074003 | 83 | 26 | 1.0 | 11.0 | 0.00 | 0.00 | 0.00 | 57 | 1018.6 |
| 20260906073603 | 82 | 24 | 2.0 | 11.0 | 0.00 | 0.00 | 0.00 | 60 | 1018.5 |
| 20260906073416 | 82 | 23 | 3.0 | 11.0 | 0.00 | 0.00 | 0.00 | 60 | 1018.4 |
| 20260906072803 | 80 | 29 | 0.0 | 8.0 | 0.00 | 0.00 | 0.00 | 62 | 1018.4 |
| 20260906072403 | 80 | 26 | 4.0 | 9.0 | 0.00 | 0.00 | 0.00 | 62 | 1018.4 |
| 20260906072214 | 80 | 19 | 2.0 | 11.0 | 0.00 | 0.00 | 0.00 | 61 | 1018.6 |
| 20260906071603 | 79 | 357 | 2.0 | 11.0 | 0.00 | 0.00 | 0.00 | 64 | 1018.2 |
| 20260906071203 | 79 | 360 | 4.0 | 13.0 | 0.00 | 0.00 | 0.00 | 64 | 1018.3 |
| 20260906070803 | 79 | 13 | 3.0 | 13.0 | 0.00 | 0.00 | 0.00 | 65 | 1018.6 |
| 20260906070616 | 79 | 12 | 3.0 | 13.0 | 0.00 | 0.00 | 0.00 | 65 | 1018.3 |
| 20260906070216 | 79 | 19 | 4.0 | 8.0 | 0.00 | 0.00 | 0.00 | 66 | 1018.3 |
| 20260906065603 | 79 | 21 | 2.0 | 6.0 | 0.00 | 0.00 | 0.00 | 66 | 1018.1 |
| 20260906065203 | 79 | 22 | 2.0 | 8.0 | 0.00 | 0.00 | 0.00 | 66 | 1018.1 |
| 20260906064803 | 78 | 8 | 3.0 | 8.0 | 0.00 | 0.00 | 0.00 | 67 | 1018.2 |
| 20260906064403 | 78 | 5 | 4.0 | 9.0 | 0.00 | 0.00 | 0.00 | 68 | 1018.3 |
| 20260906064003 | 77 | 354 | 5.0 | 9.0 | 0.00 | 0.00 | 0.00 | 68 | 1017.9 |
| 20260906063603 | 77 | 346 | 3.0 | 9.0 | 0.00 | 0.00 | 0.00 | 69 | 1018.0 |
| 20260906063203 | 77 | 326 | 4.0 | 8.0 | 0.00 | 0.00 | 0.00 | 69 | 1018.0 |
| 20260906062803 | 77 | 343 | 2.0 | 8.0 | 0.00 | 0.00 | 0.00 | 69 | 1018.0 |
| 20260906062403 | 76 | 342 | 2.0 | 8.0 | 0.00 | 0.00 | 0.00 | 70 | 1018.1 |
| 20260906062003 | 76 | 11 | 2.0 | 8.0 | 0.00 | 0.00 | 0.00 | 71 | 1017.8 |
| 20260906061603 | 76 | 16 | 2.0 | 8.0 | 0.00 | 0.00 | 0.00 | 71 | 1017.6 |
| 20260906061413 | 76 | 24 | 2.0 | 8.0 | 0.00 | 0.00 | 0.00 | 71 | 1017.6 |
| 20260906060803 | 76 | 359 | 2.0 | 4.0 | 0.00 | 0.00 | 0.00 | 72 | 1017.7 |
| 20260906060403 | 75 | 1 | 2.0 | 4.0 | 0.00 | 0.00 | 0.00 | 73 | 1017.8 |
| 20260906060003 | 74 | 1 | 2.0 | 4.0 | 0.00 | 0.00 | 0.00 | 74 | 1017.8 |
| 20260906055816 | 74 | 4 | 2.0 | 4.0 | 0.00 | 0.00 | 0.00 | 74 | 1017.7 |
| 20260906055204 | 74 | 340 | 2.0 | 4.0 | 0.00 | 0.00 | 0.00 | 75 | 1017.8 |
| 20260906054803 | 74 | 351 | 1.0 | 4.0 | 0.00 | 0.00 | 0.00 | 75 | 1017.8 |
| 20260906054403 | 74 | 341 | 0.0 | 4.0 | 0.00 | 0.00 | 0.00 | 75 | 1017.5 |
| 20260906054003 | 74 | 339 | 2.0 | 4.0 | 0.00 | 0.00 | 0.00 | 75 | 1017.5 |
| 20260906053603 | 74 | 346 | 2.0 | 4.0 | 0.00 | 0.00 | 0.00 | 76 | 1017.4 |
| 20260906053417 | 74 | 358 | 1.0 | 4.0 | 0.00 | 0.00 | 0.00 | 76 | 1017.6 |
| 20260906053016 | 73 | 353 | 1.0 | 4.0 | 0.00 | 0.00 | 0.00 | 76 | 1017.3 |
| 20260906052403 | 73 | 338 | 0.0 | 4.0 | 0.00 | 0.00 | 0.00 | 76 | 1017.4 |
| 20260906052003 | 73 | 334 | 0.0 | 4.0 | 0.00 | 0.00 | 0.00 | 76 | 1017.3 |
| 20260906051603 | 73 | 353 | 2.0 | 4.0 | 0.00 | 0.00 | 0.00 | 76 | 1017.2 |
| 20260906051203 | 73 | 360 | 1.0 | 4.0 | 0.00 | 0.00 | 0.00 | 76 | 1017.2 |
| 20260906050803 | 73 | 352 | 2.0 | 4.0 | 0.00 | 0.00 | 0.00 | 76 | 1017.0 |
| 20260906050612 | 73 | 353 | 1.0 | 4.0 | 0.00 | 0.00 | 0.00 | 77 | 1017.2 |
| 20260906050003 | 73 | 1 | 2.0 | 4.0 | 0.00 | 0.00 | 0.00 | 77 | 1017.2 |
| 20260906045603 | 73 | 354 | 0.0 | 2.0 | 0.00 | 0.00 | 0.00 | 77 | 1017.1 |
| 20260906045203 | 73 | 349 | 1.0 | 4.0 | 0.00 | 0.00 | 0.00 | 77 | 1017.2 |
| 20260906045015 | 73 | 351 | 2.0 | 4.0 | 0.00 | 0.00 | 0.00 | 77 | 1016.9 |
| 20260906044614 | 73 | 345 | 1.0 | 4.0 | 0.00 | 0.00 | 0.00 | 77 | 1017.2 |
| 20260906044003 | 73 | 350 | 2.0 | 4.0 | 0.00 | 0.00 | 0.00 | 77 | 1016.9 |
| 20260906043603 | 73 | 353 | 1.0 | 6.0 | 0.00 | 0.00 | 0.00 | 77 | 1016.8 |
| 20260906043418 | 73 | 351 | 2.0 | 6.0 | 0.00 | 0.00 | 0.00 | 77 | 1016.9 |
| 20260906043017 | 73 | 346 | 1.0 | 6.0 | 0.00 | 0.00 | 0.00 | 76 | 1016.8 |
| 20260906042403 | 73 | 360 | 1.0 | 4.0 | 0.00 | 0.00 | 0.00 | 76 | 1016.6 |
| 20260906042003 | 73 | 8 | 1.0 | 7.0 | 0.00 | 0.00 | 0.00 | 76 | 1016.6 |
| 20260906041603 | 73 | 15 | 2.0 | 7.0 | 0.00 | 0.00 | 0.00 | 76 | 1016.5 |
| 20260906041203 | 73 | 3 | 4.0 | 7.0 | 0.00 | 0.00 | 0.00 | 76 | 1016.6 |
| 20260906041014 | 73 | 354 | 1.0 | 4.0 | 0.00 | 0.00 | 0.00 | 76 | 1016.4 |
| 20260906040403 | 74 | 360 | 1.0 | 4.0 | 0.00 | 0.00 | 0.00 | 76 | 1016.6 |
| 20260906040003 | 74 | 4 | 2.0 | 4.0 | 0.00 | 0.00 | 0.00 | 76 | 1016.6 |
| 20260906035817 | 74 | 3 | 2.0 | 4.0 | 0.00 | 0.00 | 0.00 | 76 | 1016.5 |
| 20260906035203 | 74 | 336 | 1.0 | 4.0 | 0.00 | 0.00 | 0.00 | 76 | 1016.4 |
| 20260906035016 | 74 | 335 | 2.0 | 4.0 | 0.00 | 0.00 | 0.00 | 76 | 1016.3 |
| 20260906034403 | 74 | 347 | 1.0 | 4.0 | 0.00 | 0.00 | 0.00 | 76 | 1016.3 |
| 20260906034004 | 74 | 342 | 1.0 | 6.0 | 0.00 | 0.00 | 0.00 | 76 | 1016.2 |
| 20260906033603 | 74 | 328 | 1.0 | 6.0 | 0.00 | 0.00 | 0.00 | 76 | 1016.4 |
| 20260906033204 | 74 | 330 | 2.0 | 6.0 | 0.00 | 0.00 | 0.00 | 76 | 1016.2 |
| 20260906032803 | 74 | 334 | 1.0 | 4.0 | 0.00 | 0.00 | 0.00 | 76 | 1016.3 |
| 20260906032403 | 74 | 327 | 1.0 | 4.0 | 0.00 | 0.00 | 0.00 | 76 | 1016.3 |
| 20260906032003 | 74 | 336 | 2.0 | 4.0 | 0.00 | 0.00 | 0.00 | 76 | 1016.3 |
| 20260906031816 | 74 | 342 | 2.0 | 4.0 | 0.00 | 0.00 | 0.00 | 76 | 1016.1 |
| 20260906031203 | 74 | 333 | 0.0 | 4.0 | 0.00 | 0.00 | 0.00 | 77 | 1016.1 |
| 20260906030803 | 74 | 340 | 1.0 | 4.0 | 0.00 | 0.00 | 0.00 | 76 | 1016.1 |
| 20260906030614 | 74 | 336 | 2.0 | 4.0 | 0.00 | 0.00 | 0.00 | 76 | 1016.2 |
| 20260906030213 | 74 | 340 | 1.0 | 4.0 | 0.00 | 0.00 | 0.00 | 77 | 1016.3 |
| 20260906025603 | 74 | 337 | 0.0 | 2.0 | 0.00 | 0.00 | 0.00 | 78 | 1016.4 |
| 20260906025203 | 74 | 334 | 1.0 | 2.0 | 0.00 | 0.00 | 0.00 | 78 | 1016.2 |
| 20260906024803 | 74 | 339 | 1.0 | 2.0 | 0.00 | 0.00 | 0.00 | 78 | 1016.5 |
| 20260906024616 | 74 | 341 | 1.0 | 2.0 | 0.00 | 0.00 | 0.00 | 79 | 1016.4 |
| 20260906024215 | 74 | 327 | 0.0 | 2.0 | 0.00 | 0.00 | 0.00 | 78 | 1016.3 |
| 20260906023603 | 74 | 334 | 1.0 | 2.0 | 0.00 | 0.00 | 0.00 | 78 | 1016.4 |
| 20260906023203 | 74 | 350 | 0.0 | 4.0 | 0.00 | 0.00 | 0.00 | 78 | 1016.2 |
| 20260906023013 | 74 | 352 | 2.0 | 4.0 | 0.00 | 0.00 | 0.00 | 77 | 1016.2 |
| 20260906022403 | 74 | 338 | 2.0 | 4.0 | 0.00 | 0.00 | 0.00 | 78 | 1016.2 |
| 20260906022217 | 74 | 341 | 1.0 | 4.0 | 0.00 | 0.00 | 0.00 | 78 | 1016.1 |
| 20260906021816 | 75 | 342 | 1.0 | 4.0 | 0.00 | 0.00 | 0.00 | 78 | 1016.1 |
| 20260906021416 | 75 | 337 | 2.0 | 4.0 | 0.00 | 0.00 | 0.00 | 78 | 1016.0 |
| 20260906021015 | 75 | 341 | 2.0 | 4.0 | 0.00 | 0.00 | 0.00 | 79 | 1016.2 |
| 20260906020403 | 74 | 343 | 1.0 | 4.0 | 0.00 | 0.00 | 0.00 | 80 | 1016.2 |
| 20260906020214 | 74 | 351 | 0.0 | 4.0 | 0.00 | 0.00 | 0.00 | 80 | 1015.9 |
| 20260906015813 | 75 | 359 | 1.0 | 4.0 | 0.00 | 0.00 | 0.00 | 80 | 1016.1 |
| 20260906015203 | 75 | 16 | 0.0 | 4.0 | 0.00 | 0.00 | 0.00 | 81 | 1016.3 |
| 20260906014803 | 75 | 7 | 1.0 | 4.0 | 0.00 | 0.00 | 0.00 | 81 | 1016.3 |
| 20260906014403 | 75 | 1 | 2.0 | 4.0 | 0.00 | 0.00 | 0.00 | 81 | 1016.3 |
| 20260906014003 | 75 | 337 | 1.0 | 4.0 | 0.00 | 0.00 | 0.00 | 82 | 1016.1 |
| 20260906013603 | 75 | 332 | 0.0 | 4.0 | 0.00 | 0.00 | 0.00 | 82 | 1015.9 |
| 20260906013203 | 75 | 319 | 2.0 | 4.0 | 0.00 | 0.00 | 0.00 | 83 | 1016.0 |
| 20260906012803 | 75 | 343 | 1.0 | 4.0 | 0.00 | 0.00 | 0.00 | 85 | 1016.1 |
| 20260906012403 | 75 | 353 | 1.0 | 4.0 | 0.00 | 0.00 | 0.00 | 85 | 1015.9 |
| 20260906012003 | 75 | 2 | 1.0 | 4.0 | 0.00 | 0.00 | 0.00 | 86 | 1015.9 |
| 20260906011603 | 75 | 347 | 1.0 | 4.0 | 0.00 | 0.00 | 0.00 | 86 | 1016.0 |
| 20260906011416 | 75 | 342 | 0.0 | 4.0 | 0.00 | 0.00 | 0.00 | 86 | 1015.9 |
| 20260906011016 | 75 | 340 | 1.0 | 4.0 | 0.00 | 0.00 | 0.00 | 87 | 1015.9 |
| 20260906010403 | 75 | 10 | 1.0 | 2.0 | 0.00 | 0.00 | 0.00 | 87 | 1016.0 |
| 20260906010003 | 75 | 20 | 0.0 | 2.0 | 0.00 | 0.00 | 0.00 | 88 | 1015.7 |
| 20260906005603 | 75 | 17 | 0.0 | 2.0 | 0.00 | 0.00 | 0.00 | 88 | 1015.9 |
| 20260906005203 | 75 | 354 | 0.0 | 4.0 | 0.00 | 0.00 | 0.00 | 88 | 1016.1 |
| 20260906004803 | 75 | 341 | 0.0 | 4.0 | 0.00 | 0.00 | 0.00 | 89 | 1016.0 |
| 20260906004403 | 75 | 335 | 1.0 | 4.0 | 0.00 | 0.00 | 0.00 | 89 | 1015.9 |
| 20260906004003 | 76 | 338 | 1.0 | 2.0 | 0.00 | 0.00 | 0.00 | 90 | 1016.0 |
| 20260906003603 | 76 | 347 | 0.0 | 4.0 | 0.00 | 0.00 | 0.00 | 91 | 1016.0 |
| 20260906003203 | 76 | 345 | 0.0 | 4.0 | 0.00 | 0.00 | 0.00 | 91 | 1015.9 |
| 20260906003014 | 76 | 347 | 0.0 | 4.0 | 0.00 | 0.00 | 0.00 | 91 | 1016.0 |
| 20260906002403 | 76 | 333 | 1.0 | 4.0 | 0.00 | 0.00 | 0.00 | 91 | 1016.0 |
| 20260906002213 | 76 | 340 | 1.0 | 4.0 | 0.00 | 0.00 | 0.00 | 91 | 1016.0 |
| 20260906001603 | 76 | 333 | 1.0 | 2.0 | 0.00 | 0.00 | 0.00 | 92 | 1016.1 |
| 20260906001204 | 76 | 305 | 0.0 | 2.0 | 0.00 | 0.00 | 0.00 | 92 | 1016.1 |
| 20260906000803 | 76 | 299 | 1.0 | 2.0 | 0.00 | 0.00 | 0.00 | 91 | 1016.0 |
| 20260906000403 | 76 | 320 | 1.0 | 4.0 | 0.00 | 0.00 | 0.00 | 91 | 1015.9 |
| 20260906000004 | 76 | 338 | 1.0 | 4.0 | 0.00 | 0.00 | 0.00 | 91 | 1015.7 |
| 20260905235603 | 76 | 336 | 2.0 | 4.0 | 0.00 | 0.00 | 0.00 | 91 | 1015.9 |
| 20260905235414 | 76 | 339 | 0.0 | 4.0 | 0.00 | 0.00 | 0.00 | 91 | 1016.1 |
| 20260905235013 | 77 | 335 | 0.0 | 4.0 | 0.00 | 0.00 | 0.00 | 91 | 1015.9 |
| 20260905234403 | 77 | 332 | 1.0 | 4.0 | 0.00 | 0.00 | 0.00 | 91 | 1015.9 |
| 20260905234003 | 77 | 343 | 1.0 | 2.0 | 0.00 | 0.00 | 0.00 | 91 | 1015.8 |
| 20260905233603 | 77 | 351 | 0.0 | 2.0 | 0.00 | 0.00 | 0.00 | 91 | 1015.8 |
| 20260905233416 | 77 | 350 | 2.0 | 2.0 | 0.00 | 0.00 | 0.00 | 91 | 1016.0 |
| 20260905232803 | 77 | 326 | 1.0 | 2.0 | 0.00 | 0.00 | 0.00 | 92 | 1015.6 |
| 20260905232403 | 77 | 317 | 1.0 | 2.0 | 0.00 | 0.00 | 0.00 | 92 | 1015.7 |
| 20260905232003 | 77 | 336 | 0.0 | 2.0 | 0.00 | 0.00 | 0.00 | 93 | 1015.7 |
| 20260905231603 | 77 | 3 | 0.0 | 2.0 | 0.00 | 0.00 | 0.00 | 94 | 1015.7 |
| 20260905231203 | 77 | 16 | 0.0 | 2.0 | 0.00 | 0.00 | 0.00 | 94 | 1015.7 |
| 20260905231017 | 77 | 22 | 1.0 | 2.0 | 0.00 | 0.00 | 0.00 | 94 | 1015.8 |
| 20260905230404 | 77 | 15 | 1.0 | 2.0 | 0.00 | 0.00 | 0.00 | 94 | 1015.7 |
| 20260905230216 | 77 | 10 | 1.0 | 2.0 | 0.00 | 0.00 | 0.00 | 94 | 1015.8 |
| 20260905225603 | 77 | 348 | 0.0 | 2.0 | 0.00 | 0.00 | 0.00 | 95 | 1015.6 |
| 20260905225203 | 77 | 11 | 0.0 | 2.0 | 0.00 | 0.00 | 0.00 | 95 | 1015.8 |
| 20260905224803 | 76 | 45 | 0.0 | 2.0 | 0.00 | 0.00 | 0.00 | 95 | 1015.5 |
| 20260905224613 | 76 | 45 | 0.0 | 2.0 | 0.00 | 0.00 | 0.00 | 95 | 1015.4 |
| 20260905224003 | 76 | 0 | 0.0 | 0.0 | 0.00 | 0.00 | 0.00 | 95 | 1015.5 |
| 20260905223603 | 76 | 0 | 0.0 | 0.0 | 0.00 | 0.00 | 0.00 | 95 | 1015.7 |
| 20260905223203 | 76 | 0 | 0.0 | 0.0 | 0.00 | 0.00 | 0.00 | 96 | 1015.4 |
| 20260905222803 | 76 | 0 | 0.0 | 0.0 | 0.00 | 0.00 | 0.00 | 96 | 1015.6 |
| 20260905222615 | 76 | 0 | 0.0 | 0.0 | 0.00 | 0.00 | 0.00 | 96 | 1015.6 |
| 20260905222003 | 76 | 0 | 0.0 | 0.0 | 0.00 | 0.00 | 0.00 | 96 | 1015.5 |
| 20260905221603 | 76 | 0 | 0.0 | 0.0 | 0.00 | 0.00 | 0.00 | 96 | 1015.5 |
| 20260905221203 | 75 | 0 | 0.0 | 0.0 | 0.00 | 0.00 | 0.00 | 96 | 1015.5 |
| 20260905220803 | 76 | 0 | 0.0 | 0.0 | 0.00 | 0.00 | 0.00 | 96 | 1015.4 |
| 20260905220403 | 76 | 0 | 0.0 | 0.0 | 0.00 | 0.00 | 0.00 | 96 | 1015.1 |
| 20260905220006 | 76 | 0 | 0.0 | 0.0 | 0.00 | 0.00 | 0.00 | 96 | 1015.3 |
| 20260905215816 | 76 | 0 | 0.0 | 0.0 | 0.00 | 0.00 | 0.00 | 96 | 1015.2 |
| 20260905215203 | 76 | 90 | 0.0 | 2.0 | 0.00 | 0.00 | 0.00 | 95 | 1015.3 |
| 20260905214803 | 76 | 90 | 0.0 | 2.0 | 0.00 | 0.00 | 0.00 | 95 | 1015.1 |
| 20260905214403 | 76 | 90 | 0.0 | 2.0 | 0.00 | 0.00 | 0.00 | 95 | 1015.2 |
| 20260905214003 | 76 | 90 | 0.0 | 2.0 | 0.00 | 0.00 | 0.00 | 95 | 1015.0 |
| 20260905213603 | 76 | 0 | 0.0 | 0.0 | 0.00 | 0.00 | 0.00 | 94 | 1015.2 |
| 20260905213203 | 76 | 0 | 0.0 | 0.0 | 0.00 | 0.00 | 0.00 | 94 | 1015.0 |
| 20260905212803 | 77 | 0 | 0.0 | 0.0 | 0.00 | 0.00 | 0.00 | 94 | 1014.9 |
| 20260905212403 | 77 | 0 | 0.0 | 0.0 | 0.00 | 0.00 | 0.00 | 94 | 1014.9 |
| 20260905212003 | 77 | 0 | 0.0 | 0.0 | 0.00 | 0.00 | 0.00 | 93 | 1014.7 |
| 20260905211603 | 77 | 0 | 0.0 | 0.0 | 0.00 | 0.00 | 0.00 | 93 | 1014.8 |
| 20260905211203 | 77 | 0 | 0.0 | 0.0 | 0.00 | 0.00 | 0.00 | 93 | 1014.6 |
| 20260905210803 | 77 | 0 | 0.0 | 0.0 | 0.00 | 0.00 | 0.00 | 93 | 1014.7 |
| 20260905210612 | 77 | 0 | 0.0 | 0.0 | 0.00 | 0.00 | 0.00 | 93 | 1014.6 |
| 20260905210217 | 78 | 0 | 0.0 | 0.0 | 0.00 | 0.00 | 0.00 | 92 | 1014.5 |
| 20260905205603 | 78 | 90 | 0.0 | 2.0 | 0.00 | 0.00 | 0.00 | 92 | 1014.7 |
| 20260905205416 | 78 | 90 | 0.0 | 2.0 | 0.00 | 0.00 | 0.00 | 92 | 1014.8 |
| 20260905204804 | 77 | 90 | 0.0 | 2.0 | 0.00 | 0.00 | 0.00 | 92 | 1014.7 |
| 20260905204403 | 77 | 0 | 0.0 | 0.0 | 0.00 | 0.00 | 0.00 | 92 | 1014.9 |
| 20260905204004 | 77 | 0 | 0.0 | 0.0 | 0.00 | 0.00 | 0.00 | 93 | 1014.8 |
| 20260905203603 | 77 | 0 | 0.0 | 0.0 | 0.00 | 0.00 | 0.00 | 93 | 1014.6 |